RH
6 6 6 5 5 8 8 12 36 30 25 29 31 50 65 91 86 81 73 58 55 36 33 29 26 32 33 35 36 28 20 23 36 34 38 38 30 36 27 23 32 58 79
5 5 6 5 10 11 9 9 17 44 47 38 35 44 58 74 91 85 84 63 48 33 32 34 31 33 35 35 36 31 24 21 21 21 17 17 29 24 22 16 18 32 70
6 7 10 11 12 11 9 10 14 47 52 49 41 38 60 60 77 80 81 71 49 37 30 31 32 37 35 35 35 33 28 19 21 21 20 13 10 15 25 20 27 33 63
10 9 10 11 12 13 10 9 11 12 38 55 50 40 44 60 51 62 76 70 67 60 38 34 33 31 32 35 36 34 32 29 21 22 20 18 14 11 16 11 21 27 42
7 9 11 12 14 15 14 11 9 10 14 34 50 51 51 59 74 66 66 68 72 55 44 39 39 33 27 26 32 33 33 32 29 26 23 22 15 15 16 24 13 18 39
10 10 11 13 16 17 16 14 13 13 16 29 57 57 58 64 72 88 73 76 77 68 53 44 44 42 38 32 27 32 35 32 32 32 29 26 19 16 30 35 43 42 31
9 11 11 15 17 18 19 20 17 16 14 17 31 37 40 45 65 83 90 74 80 89 93 77 65 59 51 44 37 33 34 40 37 35 35 34 33 27 25 40 47 51 56
13 14 15 16 16 18 18 21 22 18 18 22 27 22 34 33 39 84 77 75 65 85 94 95 96 85 67 60 49 44 42 40 43 40 40 40 38 39 37 38 42 43 48
12 16 16 10 9 8 8 13 16 20 19 19 21 19 17 25 18 37 77 69 76 94 96 96 95 99 90 85 80 59 51 44 40 38 38 38 39 40 39 41 41 43 46
14 16 10 6 5 5 6 7 11 14 21 20 19 17 18 20 25 15 18 38 88 65 96 95 96 94 95 94 91 82 89 53 47 40 39 36 35 33 34 37 39 43 45
15 12 6 6 5 5 6 6 7 8 9 14 19 20 20 20 22 17 18 35 32 38 40 81 97 95 95 94 97 86 89 73 56 48 47 48 47 45 41 38 38 41 45
7 6 6 6 6 6 6 6 6 7 7 10 13 18 21 21 19 20 20 27 18 14 16 36 84 91 92 95 92 98 97 93 73 61 61 63 59 55 51 47 42 41 40
6 7 6 6 5 5 5 5 5 5 6 6 7 6 12 20 24 23 19 22 22 22 50 35 25 57 65 74 82 84 94 99 97 94 80 81 87 86 83 73 61 44 45
9 7 6 5 4 3 4 5 6 6 7 7 8 8 10 10 12 20 28 31 30 26 24 27 48 45 62 80 87 92 98 99 98 97 96 96 89 81 85 86 76 72 64
13 11 12 12 10 10 8 4 6 6 7 7 7 7 9 11 14 15 17 18 28 39 37 27 25 24 45 72 92 95 100 98 99 97 96 94 84 78 70 63 68 70 70
13 15 16 14 12 10 10 9 9 7 6 6 8 8 9 10 11 14 17 20 20 22 36 49 32 26 68 86 97 95 96 97 97 97 96 80 75 79 81 81 77 70 72
15 22 22 16 11 11 10 10 11 11 11 8 8 8 9 11 11 11 14 19 23 26 31 35 51 33 21 32 83 86 97 89 94 95 93 86 82 84 86 73 63 57 60
15 23 26 17 15 14 13 12 12 13 12 11 11 12 11 12 13 15 18 22 25 25 27 47 58 52 25 22 26 66 83 77 80 85 65 69 76 68 69 59 42 44 52
15 18 24 18 17 18 16 13 11 11 12 14 12 12 11 13 14 15 20 24 28 28 28 32 58 67 55 23 22 34 58 99 91 86 73 52 81 49 38 37 40 37 36
24 25 31 23 18 17 14 13 12 11 12 13 13 12 11 14 16 18 19 24 30 31 32 37 51 67 82 78 27 24 24 43 70 44 45 39 52 54 29 32 39 22 20
29 29 28 24 21 18 16 14 15 14 12 13 14 15 14 15 16 18 19 25 32 36 34 39 55 67 83 63 39 57 30 23 21 21 24 30 38 31 48 21 17 13 13
29 26 24 23 24 22 23 22 21 19 20 20 19 18 17 18 18 18 21 29 37 41 40 44 66 56 71 65 45 37 35 30 26 29 28 37 32 21 39 72 88 91 54
29 26 24 25 24 25 27 27 27 26 23 23 24 24 22 22 24 26 31 37 44 46 46 50 69 41 52 42 49 41 36 42 52 27 33 35 27 17 19 44 80 69 73
32 33 34 30 28 28 28 28 32 30 28 28 30 30 30 31 34 38 40 48 52 52 51 58 57 37 43 47 38 27 38 41 40 35 31 28 22 17 22 26 47 44 53
39 38 35 32 29 27 26 28 27 26 29 30 32 36 38 40 45 51 54 57 57 58 57 67 50 31 50 52 54 33 35 42 57 48 35 25 24 25 28 26 27 27 27
42 36 31 31 32 31 30 30 31 29 28 32 34 38 44 50 54 57 61 64 62 64 64 72 60 41 64 85 53 80 97 95 96 71 46 26 26 27 30 29 30 31 31
Wind_Speed
22 24 26 26 28 32 36 39 25 17 20 24 25 25 25 24 25 24 21 21 20 18 17 17 17 17 16 15 14 13 13 14 14 12 11 11 10 10 10 10 9 9 8
21 23 24 24 27 30 33 32 34 21 15 21 25 26 26 27 27 25 25 23 22 20 18 18 17 19 18 16 15 14 14 14 14 14 14 13 12 11 10 10 9 9 10
23 23 24 24 26 27 29 32 39 30 15 16 21 24 25 27 27 27 25 23 22 22 21 20 20 20 20 18 17 15 14 15 14 15 17 15 14 13 12 10 10 10 10
22 24 25 27 26 23 26 31 34 37 27 14 14 19 22 23 25 29 30 28 27 26 25 23 22 22 21 21 20 18 17 14 14 16 16 17 16 14 14 13 12 12 12
23 26 29 30 26 24 21 26 28 27 30 25 15 10 16 18 21 25 30 32 30 29 28 26 25 24 23 23 22 21 21 18 17 16 14 16 18 17 16 14 14 14 13
24 26 27 27 25 23 24 22 23 25 21 17 15 12 5 9 21 25 28 31 32 31 30 29 28 27 26 25 24 24 24 23 22 21 18 17 17 18 17 17 18 15 14
23 25 27 27 27 24 24 19 18 18 17 16 14 7 8 11 14 22 26 29 32 32 35 35 33 29 28 28 27 25 26 25 25 24 21 21 19 17 18 18 17 17 17
23 24 25 27 28 25 23 22 15 15 12 11 11 10 8 13 17 15 21 27 33 33 34 34 37 34 30 31 29 28 26 26 28 28 26 25 24 21 20 20 20 20 20
21 21 22 25 24 26 26 24 21 17 12 11 10 10 10 11 15 16 13 22 28 34 36 36 39 35 41 34 37 32 30 29 30 29 28 28 28 27 25 24 23 22 22
20 19 21 22 21 22 26 28 26 24 18 15 9 9 10 9 11 15 14 15 15 23 19 32 38 26 35 40 41 38 38 33 33 33 31 30 29 30 29 30 29 27 26
14 15 17 18 18 21 25 27 27 27 28 26 17 12 10 12 10 9 11 13 16 18 21 23 33 27 30 27 39 40 44 38 38 38 35 33 33 33 32 32 32 33 32
12 14 15 16 19 19 22 22 23 24 24 25 24 19 17 14 15 14 10 10 15 18 17 19 18 24 27 28 33 39 48 43 42 43 40 36 35 34 33 33 34 34 35
11 12 13 16 15 17 19 20 21 20 17 19 21 22 22 20 17 17 17 18 18 18 17 18 24 25 26 32 33 33 36 45 51 50 48 43 40 40 33 32 33 34 36
9 11 14 16 17 17 19 23 23 24 27 25 27 29 30 30 27 24 24 24 23 25 24 23 22 22 22 29 27 30 37 38 37 35 39 40 37 34 33 33 35 33 34
10 12 15 18 20 24 24 24 26 30 28 30 29 30 32 34 35 32 32 31 30 29 29 30 30 29 28 22 32 34 41 45 43 34 37 34 35 36 37 36 37 37 33
11 18 21 22 24 24 24 24 28 26 27 29 31 34 36 36 39 37 37 35 36 36 35 35 35 33 31 30 28 29 29 36 33 31 28 30 33 36 32 31 34 35 35
15 20 21 25 24 26 28 29 30 32 32 31 33 37 39 40 42 42 42 38 35 37 37 39 39 37 36 34 34 35 29 37 33 27 28 27 31 32 34 32 30 31 32
20 23 22 24 27 32 33 34 36 37 36 35 37 38 39 42 43 43 42 41 38 38 39 38 39 40 40 39 39 38 38 37 36 33 32 31 27 29 31 32 30 29 29
26 29 26 27 27 35 41 40 38 37 40 39 38 37 39 43 42 43 44 42 39 40 40 39 39 40 42 42 42 41 36 35 39 37 35 35 30 29 31 33 31 31 32
25 29 28 31 34 36 39 38 36 35 37 39 38 39 41 44 46 47 47 45 42 40 41 41 40 40 43 44 43 42 41 43 41 40 39 38 34 34 33 35 34 32 29
27 30 32 35 36 36 36 34 34 34 34 36 40 44 45 45 48 49 49 48 46 42 42 41 41 42 41 43 43 44 43 41 40 39 36 36 35 35 32 29 27 28 28
33 34 36 36 35 37 39 40 39 41 42 42 42 43 46 49 50 51 51 50 46 44 42 41 41 42 40 42 43 41 40 39 37 38 37 36 35 37 36 37 37 35 34
35 35 35 37 38 39 40 43 44 44 44 44 45 46 48 51 53 54 52 50 44 42 42 41 41 41 39 35 37 38 38 37 37 37 37 35 37 37 38 36 33 30 30
35 37 38 38 40 43 45 44 44 46 45 46 47 48 51 53 54 55 53 49 43 40 41 42 41 39 39 37 37 36 38 35 36 36 36 36 38 39 38 38 38 36 35
38 39 39 40 43 46 46 47 47 47 46 46 48 50 53 54 55 54 51 46 42 41 41 42 41 39 37 34 32 30 29 29 33 34 36 37 38 39 39 39 38 38 39
41 42 40 42 47 51 52 52 49 50 50 50 50 51 54 55 55 55 51 46 42 41 42 41 41 39 36 36 36 33 38 34 34 35 37 37 39 39 40 40 40 40 40
Wind_Direction
50 48 39 32 24 13 5 9 352 312 269 264 247 242 246 250 243 258 265 270 267 260 258 257 252 250 254 259 263 268 268 258 255 257 255 248 248 239 238 238 229 233 235
47 35 29 22 13 15 12 9 15 347 285 259 259 242 237 245 249 253 259 265 259 257 257 260 255 256 254 258 263 265 268 264 254 251 257 251 246 246 240 235 234 229 239
33 32 28 17 17 19 20 24 27 19 347 275 254 246 241 239 249 254 257 259 260 257 255 258 259 259 259 258 262 262 265 266 264 257 255 257 252 247 245 239 236 229 230
29 21 16 16 21 25 26 24 28 31 29 353 273 256 244 241 244 255 258 259 259 259 256 255 256 256 258 258 257 259 259 262 261 257 257 258 258 253 246 244 236 233 233
15 13 12 9 22 26 30 32 24 30 33 41 21 275 253 248 251 248 253 255 257 255 254 253 254 255 258 258 256 256 258 259 257 261 262 264 261 258 253 252 249 241 239
15 8 6 5 12 24 25 31 36 33 38 34 46 60 27 297 265 263 252 253 253 253 254 253 253 253 254 256 258 253 255 256 258 260 258 259 260 260 258 254 253 246 248
2 356 353 359 5 13 16 28 35 40 42 43 39 31 19 337 293 268 259 258 258 259 255 251 251 246 250 256 258 256 252 254 255 258 258 259 259 259 259 256 254 251 245
351 351 350 357 360 4 8 13 24 33 32 32 32 9 345 356 359 279 268 265 261 261 255 259 258 238 244 250 255 254 255 255 255 254 256 255 258 256 257 256 254 253 251
338 346 351 352 356 360 358 2 8 13 21 19 7 359 354 346 9 15 293 274 269 280 264 257 259 271 240 244 246 254 258 255 256 255 256 256 257 258 257 257 256 254 252
330 339 348 352 359 354 357 356 359 359 0 10 358 349 340 338 351 13 4 350 316 337 308 269 258 260 260 244 249 251 250 256 254 256 256 258 261 262 261 258 256 256 252
334 339 347 349 351 352 351 351 346 348 350 351 350 332 329 321 327 346 349 341 317 321 326 290 263 264 272 281 267 252 255 253 255 256 255 256 258 259 260 261 260 257 256
350 355 346 344 340 344 341 343 341 346 344 344 342 336 325 324 322 330 312 307 305 311 305 312 284 281 269 274 276 279 261 253 249 254 255 257 259 262 264 262 259 258 257
353 348 324 318 327 327 322 328 328 331 326 330 330 335 332 324 314 306 302 297 294 289 282 283 281 278 275 269 269 269 269 271 266 250 252 256 261 262 264 266 265 261 256
356 328 332 339 327 328 319 319 315 315 316 319 317 317 321 324 322 314 305 302 293 287 282 275 267 272 274 263 263 266 260 260 256 242 246 254 256 261 261 264 265 264 260
346 348 338 341 335 329 321 310 314 310 311 310 309 309 315 317 320 316 311 300 289 289 286 279 274 270 267 261 271 262 251 259 248 248 250 254 260 262 265 262 262 260 259
319 330 337 328 326 318 312 307 309 309 300 299 301 302 304 306 310 311 311 303 298 290 284 286 280 277 274 274 269 264 252 239 251 250 253 259 261 261 261 262 257 257 258
315 320 325 323 323 324 321 309 301 300 298 296 299 300 300 304 304 304 306 304 293 285 281 277 278 274 270 265 265 270 252 273 263 263 260 264 257 254 257 259 255 254 257
290 313 317 310 313 314 311 305 298 296 297 298 296 298 298 299 301 302 302 302 298 288 283 275 273 272 268 266 263 260 252 257 261 258 261 259 256 258 256 253 249 250 254
287 295 307 303 306 304 307 306 302 301 296 297 299 295 294 294 295 295 299 301 296 289 283 277 270 267 268 264 262 259 257 251 251 256 255 258 252 253 252 251 250 250 253
292 295 300 298 299 308 310 311 306 303 299 296 294 296 299 296 295 295 297 299 297 290 283 277 270 265 265 266 262 261 257 253 261 257 252 252 253 250 248 250 251 251 256
290 291 293 290 295 307 308 307 306 307 305 300 294 293 295 297 296 294 295 297 298 291 283 276 268 265 264 262 262 263 261 257 258 257 256 253 246 241 243 242 246 252 256
286 287 290 296 295 300 303 306 305 304 304 304 303 301 299 297 295 295 295 296 296 291 284 275 267 264 265 262 264 262 259 255 256 257 253 249 242 240 236 241 246 252 250
290 295 297 299 296 298 301 302 301 303 305 303 302 304 300 296 293 293 294 294 294 289 283 274 267 262 264 260 262 262 255 251 254 251 248 244 241 239 238 238 246 253 252
291 296 299 297 298 299 298 297 298 303 305 303 302 301 298 295 294 292 293 294 291 285 279 271 264 261 261 262 261 257 253 252 248 245 245 244 242 241 240 240 241 241 248
294 298 298 297 296 297 301 301 307 307 305 304 302 300 298 296 294 292 292 292 289 284 275 268 261 258 260 259 251 249 251 252 249 247 245 243 242 242 243 243 242 244 246
295 300 299 299 299 300 302 304 307 309 307 305 305 302 298 296 294 290 289 287 285 281 272 265 260 255 254 256 255 253 252 248 250 248 246 245 244 244 244 246 247 248 248